Weather History for West Memphis, AR

Change the Weather History Date:

Wednesday, November 21, 2012

  Actual Average Record
Temperature  
Mean Temperature 54 °F -  
Max Temperature 66 °F 60 °F 76 °F (1966)
Min Temperature 42 °F 39 °F 16 °F (1981)
Degree Days  
Heating Degree Days 11    
Growing Degree Days 4 (Base 50)    
Moisture  
Dew Point 45 °F    
Average Humidity 80    
Maximum Humidity 100    
Minimum Humidity 47    
Precipitation  
Precipitation 0.00 in - - ()
Sea Level Pressure  
Sea Level Pressure 30.20 in    
Wind  
Wind Speed 5 mph (North)    
Max Wind Speed 8 mph    
Max Gust Speed -    
Visibility 7 miles    
Events      
Averages and records for this station are not official NWS values.
T = Trace of Precipitation, MM = Missing Value Source: NWS Daily Summary

Daily Weather History Graph

Daily Weather History Graph

Search for Another Location

Airport:

Trip Planner

Search our weather history database for the weather conditions in past years. The results will help you decide how hot, cold, wet, or windy it might be!

Date:

Astronomy

Nov. 21, 2012 Rise Set
Actual Time 6:42 AM CST 4:51 PM CST
Civil Twilight 6:14 AM CST 5:18 PM CST
Nautical Twilight 5:43 AM CST 5:49 PM CST
Astronomical Twilight 5:13 AM CST 6:20 PM CST
Moon 12:55 PM CST (11/21) 12:15 AM CST (11/21)
Length of Visible Light 11h 04m
Length of Day
10h 09m
First Quarter, 62% of the Moon is Illuminated
Nov 21
First Quarter
Nov 28
Full
Dec 6
Last Quarter
Dec 13
New
Dec 19
First Quarter

Hourly Weather History & Observations

Time (CST) Temp. Windchill Dew Point Humidity Pressure Visibility Wind Dir Wind Speed Gust Speed Precip Events Conditions
12:53 AM 53.1 °F - 46.0 °F 77% 30.15 in 10.0 mi North 8.1 mph - N/A   Clear
1:53 AM 50.0 °F - 45.0 °F 83% 30.16 in 9.0 mi North 5.8 mph - N/A   Clear
2:53 AM 46.9 °F - 44.1 °F 90% 30.17 in 7.0 mi NNW 4.6 mph - N/A   Clear
3:53 AM 46.0 °F 44.8 °F 43.0 °F 89% 30.19 in 6.0 mi NNW 3.5 mph - N/A   Clear
4:53 AM 48.0 °F - 44.1 °F 86% 30.20 in 8.0 mi North 8.1 mph - N/A   Clear
5:53 AM 45.0 °F 42.6 °F 43.0 °F 93% 30.21 in 6.0 mi NW 4.6 mph - N/A   Clear
6:53 AM 45.0 °F 42.6 °F 42.1 °F 90% 30.23 in 6.0 mi NNW 4.6 mph - N/A   Clear
7:53 AM 48.9 °F - 45.0 °F 86% 30.25 in 5.0 mi North 8.1 mph - N/A   Clear
8:53 AM 53.1 °F - 46.9 °F 80% 30.26 in 5.0 mi NNE 5.8 mph - N/A   Haze
10:53 AM 62.1 °F - 46.9 °F 58% 30.25 in 9.0 mi NNE 4.6 mph - N/A   Clear
11:53 AM 64.0 °F - 46.0 °F 52% 30.24 in 10.0 mi Calm Calm - N/A   Clear
12:53 PM 66.0 °F - 46.0 °F 48% 30.22 in 9.0 mi NNE 6.9 mph - N/A   Clear
1:53 PM 66.9 °F - 46.0 °F 47% 30.20 in 10.0 mi NNW 8.1 mph - N/A   Clear
2:53 PM 66.9 °F - 46.0 °F 47% 30.19 in 10.0 mi North 6.9 mph - N/A   Clear
3:53 PM 64.9 °F - 46.9 °F 52% 30.19 in 10.0 mi North 5.8 mph - N/A   Clear
4:53 PM 61.0 °F - 48.0 °F 62% 30.19 in 10.0 mi NNW 3.5 mph - N/A   Clear
5:53 PM 55.9 °F - 48.0 °F 75% 30.21 in 10.0 mi NW 4.6 mph - N/A   Clear
6:53 PM 54.0 °F - 46.9 °F 77% 30.21 in 9.0 mi Calm Calm - N/A   Clear
7:53 PM 50.0 °F - 46.9 °F 89% 30.20 in 8.0 mi Calm Calm - N/A   Clear
8:53 PM 45.0 °F - 43.0 °F 93% 30.21 in 6.0 mi Calm Calm - N/A   Clear
9:53 PM 44.1 °F - 42.1 °F 93% 30.20 in 4.0 mi Calm Calm - N/A   Clear
10:53 PM 44.1 °F - 42.1 °F 93% 30.19 in 4.0 mi Calm Calm - N/A   Clear
11:08 PM 42.8 °F - 42.8 °F 100% 30.19 in 1.8 mi Calm Calm - N/A   Clear
11:23 PM 44.6 °F - 42.8 °F 93% 30.19 in 2.0 mi Calm Calm - N/A   Clear
11:33 PM 42.8 °F - 41.0 °F 93% 30.19 in 1.5 mi Calm Calm - N/A   Clear
11:41 PM 42.8 °F - 41.0 °F 93% 30.19 in 3.0 mi Calm Calm - N/A   Clear
11:53 PM 44.1 °F - 42.1 °F 93% 30.19 in 3.0 mi Calm Calm - N/A   Clear
11:59 PM 42.8 °F - 42.8 °F 100% 30.19 in 1.8 mi Calm Calm - N/A   Clear